Weather History for KBKE - March, 2014

Change the Weather History Date:

Saturday, March 1, 2014

  Actual Average Record
Temperature  
Mean Temperature 34 °F 34 °F  
Max Temperature 39 °F 45 °F 66 °F (1986)
Min Temperature 29 °F 22 °F 0 °F (1960)
Degree Days  
Heating Degree Days 31 32  
Month to date heating degree days 31 32  
Since 1 July heating degree days 5557 5552  
Cooling Degree Days 0 0  
Month to date cooling degree days 0 0  
Year to date cooling degree days 0 0  
Moisture  
Dew Point 32 °F    
Average Humidity 82    
Maximum Humidity 100    
Minimum Humidity 64    
Precipitation  
Precipitation 0.12 in 0.03 in 0.16 in (1970)
Month to date precipitation 0.12 0.03  
Year to date precipitation 1.81 1.41  
Sea Level Pressure  
Sea Level Pressure 29.64 in    
Wind  
Wind Speed 8 mph (NW)    
Max Wind Speed 22 mph    
Max Gust Speed 26 mph    
Visibility 10 miles    
Events Rain , Snow    
T = Trace of Precipitation, MM = Missing Value Source: NWS Daily Summary

Daily Weather History Graph

Daily Weather History Graph

Search for Another Location

Airport or City:

Trip Planner

Search our weather history database for the weather conditions in past years. The results will help you decide how hot, cold, wet, or windy it might be!

Date:

Astronomy

Mar. 01, 2014 Rise Set
Actual Time 6:28 AM PST 5:39 PM PST
Civil Twilight 5:59 AM PST 6:08 PM PST
Nautical Twilight 5:25 AM PST 6:42 PM PST
Astronomical Twilight 4:51 AM PST 7:16 PM PST
Moon 6:22 AM PST (3/1) 6:35 PM PST (3/1)
Length of Visible Light 12h 09m
Length of Day
11h 10m
New Moon, 0% of the Moon is Illuminated
Mar 1
New Moon
Mar 8
First Quarter
Mar 16
Full
Mar 23
Last Quarter
Mar 30
New

Hourly Weather History & Observations

Time (PST) Temp. Windchill Dew Point Humidity Pressure Visibility Wind Dir Wind Speed Gust Speed Precip Events Conditions
12:05 AM 37.0 °F - 37.0 °F 100% 29.45 in 10.0 mi Calm Calm - N/A   Overcast
12:42 AM 37.0 °F - 37.0 °F 100% 29.45 in 10.0 mi Calm Calm - 0.00 in Rain Light Rain
12:51 AM 37.4 °F 34.9 °F 37.4 °F 100% 29.45 in 10.0 mi West 3.5 mph - 0.00 in Rain Light Rain
12:53 AM 37.0 °F 34.5 °F 37.0 °F 100% 29.46 in 10.0 mi West 3.5 mph - 0.00 in Rain Light Rain
1:46 AM 37.0 °F 33.3 °F 36.0 °F 96% 29.45 in 8.0 mi WNW 4.6 mph - 0.02 in Rain Light Rain
1:53 AM 37.0 °F 33.3 °F 36.0 °F 96% 29.46 in 9.0 mi WNW 4.6 mph - 0.02 in Rain Light Rain
2:14 AM 37.0 °F 33.3 °F 37.0 °F 100% 29.45 in 10.0 mi WNW 4.6 mph - 0.01 in Rain Light Rain
2:53 AM 37.9 °F 32.1 °F 37.0 °F 97% 29.46 in 9.0 mi NW 8.1 mph - 0.02 in Rain Light Rain
3:53 AM 37.0 °F 29.3 °F 37.0 °F 100% 29.47 in 7.0 mi NW 11.5 mph - 0.04 in Rain Light Rain
4:08 AM 36.0 °F 28.0 °F 35.1 °F 97% 29.46 in 9.0 mi NNW 11.5 mph - 0.02 in Rain Light Rain
4:53 AM 34.0 °F 25.5 °F 33.1 °F 96% 29.51 in 10.0 mi NW 11.5 mph - 0.04 in Rain Light Rain
5:53 AM 34.0 °F 28.8 °F 33.1 °F 96% 29.53 in 10.0 mi West 5.8 mph - 0.00 in   Overcast
6:53 AM 34.0 °F 28.0 °F 33.1 °F 96% 29.56 in 10.0 mi NW 6.9 mph - N/A   Overcast
7:21 AM 34.0 °F 23.8 °F 32.0 °F 92% 29.54 in 10.0 mi NW 16.1 mph - N/A   Overcast
7:53 AM 33.1 °F 21.9 °F 32.0 °F 96% 29.60 in 10.0 mi NW 18.4 mph - N/A   Overcast
8:53 AM 33.1 °F 21.5 °F 32.0 °F 96% 29.64 in 10.0 mi NW 19.6 mph - N/A   Scattered Clouds
9:53 AM 36.0 °F 25.6 °F 28.9 °F 76% 29.67 in 10.0 mi NW 18.4 mph - N/A   Overcast
10:53 AM 35.1 °F 25.9 °F 28.9 °F 78% 29.70 in 10.0 mi NNW 13.8 mph - N/A   Overcast
11:53 AM 35.1 °F 24.8 °F 28.0 °F 76% 29.72 in 10.0 mi NW 17.3 mph - N/A   Overcast
12:53 PM 39.0 °F 31.4 °F 28.9 °F 67% 29.70 in 10.0 mi NW 12.7 mph - N/A   Overcast
1:35 PM 37.9 °F 30.0 °F 28.9 °F 70% 29.67 in 10.0 mi NW 12.7 mph - N/A   Overcast
1:53 PM 37.9 °F 30.5 °F 28.9 °F 70% 29.73 in 10.0 mi WNW 11.5 mph - N/A   Overcast
2:53 PM 37.0 °F 32.4 °F 28.9 °F 73% 29.74 in 10.0 mi WNW 5.8 mph - N/A   Overcast
3:35 PM 36.0 °F 30.3 °F 28.9 °F 76% 29.71 in 10.0 mi NW 6.9 mph - N/A   Overcast
3:53 PM 35.1 °F 32.2 °F 30.0 °F 82% 29.76 in 6.0 mi NW 3.5 mph - 0.00 in Snow Light Snow
4:53 PM 35.1 °F 32.2 °F 28.9 °F 78% 29.77 in 10.0 mi WNW 3.5 mph - 0.00 in   Overcast
5:53 PM 33.1 °F 27.7 °F 30.0 °F 89% 29.79 in 10.0 mi NW 5.8 mph - 0.00 in   Overcast
6:53 PM 32.0 °F - 28.9 °F 88% 29.81 in 10.0 mi Calm Calm - 0.00 in   Overcast
7:34 PM 33.1 °F - 30.0 °F 89% 29.75 in 9.0 mi Calm Calm - 0.00 in Snow Light Snow
7:53 PM 32.0 °F - 30.0 °F 92% 29.81 in 10.0 mi Calm Calm - 0.00 in   Overcast
8:53 PM 32.0 °F - 30.9 °F 96% 29.82 in 10.0 mi Calm Calm - N/A   Overcast
9:07 PM 32.0 °F - 30.9 °F 96% 29.76 in 10.0 mi Calm Calm - N/A   Overcast
9:53 PM 33.1 °F - 30.9 °F 92% 29.81 in 10.0 mi Calm Calm - N/A   Overcast
10:53 PM 32.0 °F - 30.0 °F 92% 29.81 in 10.0 mi Calm Calm - N/A   Overcast
11:53 PM 30.0 °F - 28.9 °F 96% 29.82 in 8.0 mi Calm Calm - N/A   Mostly Cloudy